KSWF Airport (New York Stewart Intl) Information

FAA: SWF - ICAO: KSWF

KSWF Airport Location

State New York
County Orange
City New York
KSWF Airport is 44 miles north of New York, NY.
Latitude 41-30-14.8000N
Longitude 074-06-17.4000W
Elevation 490ft

KSWF Airport METARs

METAR KSWF 072045Z 00000KT 5SM BR OVC006 13/13 A3007
Altimeter 30.07"
Temperature 13.0°C (55.4°F)
Wind 0° at 0KT
Clouds overcast at 600ft
Visibility 5.0mi
Time observed: 2022-12-07T20:45:00Z

KSWF Airport Details

Status Operational
Activation May 1941
Ownership Public
Usage Public
Chart NEW YORK
ATC on-site Yes
Beacon schedule sunset-sunrise
Beacon color clear green

KSWF Airport Contacts

Owner PORT AUTHORITY OF NY & NJ
Owner address 1180 FIRST ST, NEW WINDSOR, NY 12553
Owner phone 845-564-2100
Manager WINTHROP UNIVERSITY HOSPITAL
Manager address 259 FIRST STREET, MINEOLA, NY 11501
Manager phone 516-663-0333

KSWF Airport (New York Stewart Intl) Radio Frequencies

KSWF (Airport) Radio Frequencies

UNICOM 122.95
Common traffic advisory frequency (CTAF) N/A